Alma, MI

5:30 PM EST on February 20, 2018 (GMT -0500)
Gratiot Community

Weather History for KAMN - August, 2013

Change the Weather History Date:

Tuesday, August 20, 2013

  Actual Average Record
Temperature  
Mean Temperature 71 °F -  
Max Temperature 87 °F 79 °F 97 °F (1983)
Min Temperature 55 °F 55 °F 33 °F (1998)
Cooling Degree Days 6    
Growing Degree Days 21 (Base 50)    
Moisture  
Dew Point 58 °F    
Average Humidity 68    
Maximum Humidity 96    
Minimum Humidity 35    
Precipitation  
Precipitation 0.00 in - - ()
Sea Level Pressure  
Sea Level Pressure 30.10 in    
Wind  
Wind Speed 3 mph (SW)    
Max Wind Speed 13 mph    
Max Gust Speed 20 mph    
Visibility 9 miles    
Events      
Averages and records for this station are not official NWS values.
T = Trace of Precipitation, MM = Missing Value Source: NWS Daily Summary

Daily Weather History Graph

Daily Weather History Graph

Search for Another Location

Airport or City:

Trip Planner

Search our weather history database for the weather conditions in past years. The results will help you decide how hot, cold, wet, or windy it might be!

Date:

Astronomy

Aug. 20, 2013 Rise Set
Actual Time 6:49 AM EDT 8:33 PM EDT
Civil Twilight 6:19 AM EDT 9:03 PM EDT
Nautical Twilight 5:42 AM EDT 9:40 PM EDT
Astronomical Twilight 5:02 AM EDT 10:20 PM EDT
Moon 8:02 PM EDT 6:19 AM EDT
Length of Visible Light 14h 44m
Length of Day
13h 43m
Full, 100% of the Moon is Illuminated
Aug 20
Full
Aug 20
Full
Aug 28
Last Quarter
Sep 5
New
Sep 12
First Quarter

Hourly Weather History & Observations

Time (EDT) Temp. Heat Index Dew Point Humidity Pressure Visibility Wind Dir Wind Speed Gust Speed Precip Events Conditions
12:09 AM 58.1 °F - 55.9 °F 93% 30.07 in 7.0 mi Calm Calm - N/A   Clear
12:29 AM 59.7 °F - 58.1 °F 94% 30.07 in 10.0 mi Calm Calm - N/A   Clear
12:48 AM 57.7 °F - 56.3 °F 95% 30.07 in 7.0 mi Calm Calm - N/A   Clear
1:08 AM 57.9 °F - 56.3 °F 94% 30.07 in 7.0 mi Calm Calm - N/A   Clear
1:29 AM 58.3 °F - 57.0 °F 96% 30.07 in 7.0 mi Calm Calm - N/A   Clear
1:49 AM 57.9 °F - 56.5 °F 95% 30.07 in 7.0 mi Calm Calm - N/A   Clear
2:11 AM 57.9 °F - 55.4 °F 91% 30.07 in 10.0 mi Calm Calm - N/A   Clear
2:31 AM 56.8 °F - 54.7 °F 92% 30.07 in 7.0 mi Calm Calm - N/A   Clear
2:51 AM 57.2 °F - 55.2 °F 93% 30.07 in 7.0 mi Calm Calm - N/A   Clear
3:11 AM 57.4 °F - 55.8 °F 94% 30.07 in 7.0 mi SSW 4.6 mph - N/A   Clear
3:31 AM 59.9 °F - 56.8 °F 90% 30.07 in 10.0 mi SSW 4.6 mph - N/A   Clear
3:51 AM 57.9 °F - 54.9 °F 90% 30.08 in 7.0 mi Calm Calm - N/A   Clear
4:12 AM 57.2 °F - 55.2 °F 93% 30.08 in 7.0 mi Calm Calm - N/A   Clear
4:32 AM 55.4 °F - 53.6 °F 94% 30.08 in 5.0 mi Calm Calm - N/A   Clear
4:52 AM 56.5 °F - 54.9 °F 94% 30.08 in 4.0 mi Calm Calm - N/A   Clear
5:12 AM 55.8 °F - 54.5 °F 96% 30.08 in 2.0 mi Calm Calm - N/A   Mostly Cloudy
5:32 AM 55.8 °F - 54.7 °F 96% 30.08 in 4.0 mi Calm Calm - N/A   Scattered Clouds
5:49 AM 56.3 °F - 55.2 °F 96% 30.08 in 4.0 mi Calm Calm - N/A   Clear
6:11 AM 55.8 °F - 54.7 °F 96% 30.09 in 4.0 mi Calm Calm - N/A   Clear
6:31 AM 56.3 °F - 55.0 °F 96% 30.09 in 4.0 mi Calm Calm - N/A   Clear
6:51 AM 57.2 °F - 55.9 °F 96% 30.10 in 4.0 mi Calm Calm - N/A   Clear
7:11 AM 57.4 °F - 56.1 °F 96% 30.11 in 4.0 mi Calm Calm - N/A   Clear
7:31 AM 58.6 °F - 57.6 °F 96% 30.11 in 5.0 mi SSW 3.5 mph - N/A   Clear
7:51 AM 61.3 °F - 59.0 °F 92% 30.12 in 5.0 mi Calm Calm - N/A   Clear
8:12 AM 63.1 °F - 59.7 °F 89% 30.12 in 7.0 mi Calm Calm - N/A   Clear
8:32 AM 64.8 °F - 60.3 °F 85% 30.13 in 7.0 mi Calm Calm - N/A   Clear
8:52 AM 67.1 °F - 61.2 °F 81% 30.13 in 10.0 mi SW 4.6 mph - N/A   Clear
9:12 AM 69.8 °F - 62.1 °F 76% 30.13 in 10.0 mi SW 4.6 mph - N/A   Clear
9:32 AM 71.2 °F - 62.6 °F 74% 30.14 in 10.0 mi SW 5.8 mph - N/A   Clear
9:49 AM 72.5 °F - 62.8 °F 71% 30.13 in 10.0 mi WSW 4.6 mph - N/A   Clear
10:09 AM 74.7 °F - 63.5 °F 68% 30.13 in 10.0 mi WSW 3.5 mph - N/A   Clear
10:30 AM 76.8 °F - 64.0 °F 65% 30.13 in 10.0 mi SW 6.9 mph - N/A   Clear
10:50 AM 78.8 °F - 64.2 °F 61% 30.14 in 10.0 mi SSW 5.8 mph - N/A   Clear
11:10 AM 79.7 °F - 63.9 °F 58% 30.14 in 10.0 mi WSW 6.9 mph - N/A   Clear
11:30 AM 81.1 °F 82.5 °F 63.7 °F 55% 30.14 in 10.0 mi SW 6.9 mph - N/A   Clear
11:50 AM 82.2 °F 83.5 °F 63.3 °F 53% 30.14 in 10.0 mi SW 6.9 mph - N/A   Clear
12:10 PM 82.6 °F 83.2 °F 61.9 °F 49% 30.13 in 10.0 mi SW 9.2 mph - N/A   Scattered Clouds
12:30 PM 83.1 °F 83.5 °F 61.2 °F 47% 30.13 in 10.0 mi WSW 9.2 mph 17.3 mph N/A   Mostly Cloudy
12:50 PM 84.7 °F 84.6 °F 60.3 °F 43% 30.13 in 10.0 mi West 10.4 mph 16.1 mph N/A   Scattered Clouds
1:10 PM 83.7 °F 83.4 °F 58.8 °F 43% 30.13 in 10.0 mi WSW 10.4 mph 18.4 mph N/A   Scattered Clouds
1:33 PM 85.6 °F 84.7 °F 57.0 °F 38% 30.12 in 10.0 mi SW 10.4 mph - N/A   Clear
1:53 PM 86.2 °F 85.0 °F 57.2 °F 37% 30.11 in 10.0 mi SW 11.5 mph - N/A   Scattered Clouds
2:13 PM 85.5 °F 84.6 °F 57.6 °F 39% 30.11 in 10.0 mi WSW 8.1 mph - N/A   Mostly Cloudy
2:33 PM 86.9 °F 85.5 °F 56.5 °F 35% 30.10 in 10.0 mi SSW 10.4 mph 16.1 mph N/A   Mostly Cloudy
2:53 PM 87.1 °F 85.7 °F 56.3 °F 35% 30.10 in 10.0 mi SW 11.5 mph - N/A   Scattered Clouds
3:08 PM 85.5 °F 84.5 °F 57.0 °F 38% 30.10 in 10.0 mi WSW 5.8 mph - N/A   Scattered Clouds
3:28 PM 86.2 °F 84.9 °F 56.1 °F 36% 30.09 in 10.0 mi WSW 8.1 mph - N/A   Scattered Clouds
3:48 PM 87.1 °F 85.9 °F 57.0 °F 36% 30.09 in 10.0 mi WSW 8.1 mph 16.1 mph N/A   Scattered Clouds
4:09 PM 85.8 °F 84.8 °F 57.2 °F 38% 30.09 in 10.0 mi WSW 10.4 mph - N/A   Scattered Clouds
4:29 PM 84.7 °F 84.2 °F 58.6 °F 41% 30.08 in 10.0 mi WSW 10.4 mph 16.1 mph N/A   Mostly Cloudy
4:49 PM 87.6 °F 86.3 °F 57.0 °F 35% 30.08 in 10.0 mi SW 8.1 mph - N/A   Scattered Clouds
5:09 PM 86.5 °F 85.4 °F 57.4 °F 37% 30.08 in 10.0 mi WSW 12.7 mph 19.6 mph N/A   Scattered Clouds
5:31 PM 84.9 °F 84.2 °F 57.9 °F 40% 30.07 in 10.0 mi SW 5.8 mph - N/A   Scattered Clouds
5:51 PM 86.4 °F 85.2 °F 57.0 °F 37% 30.07 in 10.0 mi WSW 8.1 mph - N/A   Mostly Cloudy
6:11 PM 86.0 °F 84.7 °F 56.1 °F 36% 30.07 in 10.0 mi WSW 11.5 mph 17.3 mph N/A   Scattered Clouds
6:31 PM 85.1 °F 83.9 °F 56.3 °F 37% 30.07 in 10.0 mi SW 8.1 mph - N/A   Scattered Clouds
6:51 PM 84.4 °F 83.5 °F 57.0 °F 39% 30.07 in 10.0 mi WSW 8.1 mph - N/A   Clear
7:12 PM 83.3 °F 82.8 °F 57.4 °F 41% 30.08 in 10.0 mi SW 8.1 mph - N/A   Scattered Clouds
7:32 PM 82.4 °F 82.0 °F 57.2 °F 42% 30.08 in 10.0 mi SW 6.9 mph - N/A   Clear
7:52 PM 80.8 °F 81.1 °F 58.1 °F 46% 30.08 in 10.0 mi SW 4.6 mph - N/A   Clear
8:12 PM 78.8 °F - 58.6 °F 50% 30.08 in 10.0 mi SW 4.6 mph - N/A   Clear
8:27 PM 77.7 °F - 59.0 °F 52% 30.08 in 10.0 mi SW 3.5 mph - N/A   Clear
8:49 PM 73.8 °F - 59.5 °F 61% 30.09 in 10.0 mi SSW 3.5 mph - N/A   Clear
9:09 PM 72.1 °F - 60.1 °F 66% 30.09 in 10.0 mi SSW 3.5 mph - N/A   Clear
9:29 PM 70.0 °F - 61.2 °F 73% 30.09 in 10.0 mi SSW 3.5 mph - N/A   Clear
9:50 PM 69.6 °F - 61.5 °F 75% 30.10 in 10.0 mi SSW 4.6 mph - N/A   Clear
10:10 PM 67.6 °F - 61.2 °F 80% 30.10 in 10.0 mi SSW 3.5 mph - N/A   Clear
10:30 PM 66.7 °F - 61.5 °F 83% 30.10 in 10.0 mi South 4.6 mph - N/A   Clear
10:50 PM 65.5 °F - 61.0 °F 85% 30.09 in 10.0 mi South 3.5 mph - N/A   Clear
11:12 PM 64.2 °F - 59.7 °F 85% 30.10 in 10.0 mi Calm Calm - N/A   Clear
11:32 PM 64.8 °F - 60.8 °F 87% 30.10 in 10.0 mi South 3.5 mph - N/A   Clear
11:52 PM 63.3 °F - 59.9 °F 89% 30.10 in 7.0 mi South 5.8 mph - N/A   Clear